Temperature
15 15 15 15 14 14 14 14 14 13 13 13 13 13 13 13 13 13 13 13 13 13 13 13 13 12 12 12 12 12 12 12 12 11 11 11 11 11 11 10 10 10 10
15 15 14 14 14 14 14 14 13 13 13 13 13 13 13 13 13 12 13 12 12 12 12 12 12 12 12 12 12 12 12 12 12 11 11 11 10 10 10 10 10 10 10
15 14 14 14 14 14 13 13 13 13 13 13 13 13 13 12 12 12 12 12 12 12 12 12 12 12 12 12 12 12 11 11 11 11 11 11 10 10 10 10 10 10 10
15 14 14 14 14 13 13 13 13 13 13 13 13 13 12 12 12 12 12 12 12 12 12 12 12 12 12 12 12 12 11 11 11 11 11 10 10 10 10 10 10 10 10
14 14 14 14 13 13 13 13 13 13 12 12 12 12 12 12 12 12 12 12 12 12 12 12 12 12 12 12 11 11 11 11 11 11 11 10 10 10 10 10 10 9 9
14 14 14 13 13 13 13 13 13 12 12 12 12 12 12 12 12 12 12 12 12 12 12 12 12 12 12 12 12 11 11 11 11 11 11 10 10 10 10 10 9 9 9
14 14 13 13 13 13 13 13 12 12 12 12 12 12 12 12 12 12 12 12 11 11 11 11 11 11 11 11 11 11 11 11 11 10 10 10 10 10 10 9 9 9 9
14 13 13 13 13 13 12 12 12 12 12 12 12 12 12 12 12 12 12 11 11 11 11 11 11 11 11 11 11 11 11 11 11 10 10 10 10 10 9 9 9 9 9
14 13 13 13 12 12 12 12 12 12 11 11 11 11 11 11 11 11 11 11 11 11 11 11 11 11 11 11 10 10 10 10 10 10 10 10 10 10 9 9 9 8 8
13 13 13 13 12 12 12 12 11 11 11 11 11 11 11 11 11 11 11 10 10 10 10 10 10 10 10 10 10 10 10 10 10 10 10 10 9 9 9 9 9 8 8
13 13 13 12 12 12 12 11 11 11 11 11 11 11 11 11 11 11 11 10 10 10 10 10 10 10 10 10 10 10 10 10 9 9 9 9 9 9 9 9 9 8 8
13 13 12 12 12 12 12 11 11 11 11 11 11 10 10 10 11 11 10 10 10 10 10 10 10 10 10 10 10 10 10 9 9 9 9 9 9 9 9 9 8 8 8
12 12 12 12 12 12 11 11 11 11 11 10 10 10 10 10 10 10 10 10 10 10 10 10 10 10 10 10 9 9 9 9 9 8 8 9 9 8 8 8 8 8 8
12 12 11 11 11 11 11 11 11 11 10 10 10 10 10 10 10 10 10 9 9 9 9 9 9 9 9 9 9 9 9 9 8 8 8 8 8 8 8 8 8 8 7
11 11 11 11 11 11 11 11 11 11 11 10 10 10 10 9 10 10 9 9 9 9 9 9 9 9 9 9 8 8 8 8 8 8 8 8 8 8 8 8 7 7 7
11 11 11 10 10 10 10 10 10 10 10 10 10 10 10 10 9 9 9 9 9 9 8 8 8 8 8 8 8 8 8 8 8 8 8 8 7 7 7 7 7 7 7
11 10 10 10 10 10 10 10 10 10 10 10 10 10 9 9 9 9 9 9 8 8 8 8 8 8 8 8 8 8 8 8 8 7 7 7 7 7 7 7 7 7 7
10 10 10 10 10 10 9 9 9 9 9 9 9 9 9 9 9 9 8 8 8 8 8 8 8 8 8 8 8 8 7 7 7 7 7 7 7 7 7 7 7 7 6
10 10 9 9 9 9 9 9 9 9 9 9 9 9 9 9 9 8 8 8 8 8 8 8 8 8 8 8 8 7 7 7 7 7 7 7 7 7 7 7 6 6 6
9 9 9 9 9 9 9 9 9 9 9 9 8 8 9 8 8 8 8 8 7 7 7 7 8 7 7 7 7 7 7 7 7 7 6 6 7 7 7 6 6 6 6
9 9 9 9 9 9 8 8 8 8 8 8 8 8 8 8 8 8 8 8 8 7 7 7 7 7 7 7 7 7 7 7 6 6 6 6 6 6 6 6 6 6 6
8 8 8 8 8 8 8 8 8 8 8 7 7 7 8 8 7 7 7 7 7 7 7 7 7 7 7 7 7 7 7 6 6 6 6 6 6 6 6 6 6 6 6
8 8 8 8 8 8 7 7 7 7 7 7 7 7 7 7 7 7 7 7 7 7 7 7 7 7 7 7 7 7 6 6 6 7 6 6 6 6 6 6 6 6 5
7 7 7 7 7 7 7 7 7 7 7 7 6 6 6 7 6 6 7 7 7 7 7 7 7 7 7 7 7 6 6 6 6 6 6 6 6 6 6 5 5 5 5
7 7 7 7 7 6 6 6 6 6 6 6 6 6 6 6 6 6 6 6 6 6 6 6 6 7 7 7 6 6 6 6 6 6 6 6 6 5 5 5 5 5 5
7 7 6 6 6 6 6 6 6 6 6 6 6 6 6 6 6 6 6 6 6 6 6 6 6 6 6 6 6 6 6 6 6 5 5 5 5 5 5 5 5 5 5
Wind_Speed
5 4 4 4 4 4 3 3 3 3 3 3 4 4 4 4 4 4 4 4 4 4 3 3 3 3 3 3 3 2 2 2 3 2 1 2 2 2 2 2 2 2 2
5 5 5 4 4 4 4 3 3 3 3 4 4 4 4 5 4 4 5 5 4 4 4 3 3 3 3 3 2 3 2 2 3 3 2 2 2 1 2 2 2 2 1
5 6 5 5 5 5 5 4 4 4 4 4 4 5 5 5 5 5 5 5 5 5 4 4 4 4 4 3 3 3 2 2 2 3 3 2 2 2 2 2 2 2 2
6 6 6 6 6 5 5 4 4 4 4 4 5 5 5 5 5 5 5 5 5 5 5 4 4 4 4 4 4 3 3 3 3 3 3 3 3 3 3 2 2 2 2
7 7 6 6 5 5 5 5 4 4 4 4 4 5 5 4 4 5 5 5 5 5 5 4 4 2 1 3 3 4 4 3 3 3 4 3 4 4 3 3 3 2 2
7 7 6 6 6 6 5 5 4 4 4 4 5 5 5 4 2 3 5 6 5 5 5 5 4 4 4 5 4 4 5 5 4 4 4 5 5 4 3 3 3 3 2
7 7 6 6 6 6 5 4 5 5 4 4 5 4 5 4 3 4 5 5 5 5 5 5 4 4 5 5 6 6 6 5 5 5 5 5 5 4 4 4 4 4 3
7 7 6 6 6 6 5 5 5 5 5 5 5 5 5 4 4 5 5 6 6 6 6 6 5 5 5 5 5 6 5 6 6 6 5 5 4 4 5 4 4 3 3
7 7 6 6 6 6 6 6 6 5 5 5 5 5 6 5 5 5 6 5 6 6 6 6 6 6 4 4 6 6 5 4 5 5 4 2 2 4 5 4 4 4 4
7 7 6 6 7 7 7 7 6 6 6 5 5 6 6 6 5 6 7 6 6 5 5 6 5 5 5 6 7 6 6 5 4 5 5 5 6 7 8 7 5 5 4
6 6 7 7 7 7 6 6 6 6 5 6 6 6 6 6 6 7 8 6 6 6 5 5 5 6 6 7 7 6 4 4 5 5 5 5 5 5 6 7 6 6 6
6 6 7 7 6 6 6 6 6 6 6 6 6 6 5 5 5 6 8 8 7 7 6 5 4 7 7 7 6 3 2 4 4 4 5 5 5 5 5 6 7 7 7
6 7 7 7 6 6 6 6 6 6 6 5 5 5 5 4 5 7 8 9 8 7 5 4 4 6 7 7 6 6 6 5 5 5 5 5 5 5 5 5 6 6 7
6 6 7 7 6 6 5 6 6 6 6 6 6 6 5 5 4 4 5 6 7 6 5 4 6 6 6 4 5 6 6 6 5 6 6 5 4 4 5 4 5 5 5
5 6 6 6 6 6 6 6 7 7 6 7 7 6 6 6 5 4 5 5 5 5 4 4 4 4 5 5 5 6 6 6 6 6 6 5 5 5 5 5 5 5 6
5 5 5 5 5 5 5 5 4 5 6 7 6 7 6 6 4 5 7 7 6 6 5 6 6 6 7 7 6 6 6 6 6 6 6 6 6 6 6 6 6 6 7
6 5 4 4 5 5 5 5 5 5 5 7 7 8 7 6 5 6 7 7 8 9 7 7 7 7 7 7 7 7 7 7 7 7 7 7 7 7 7 7 7 7 7
6 5 5 5 5 5 5 6 6 6 6 5 6 8 8 7 7 7 6 6 6 8 8 8 8 8 8 8 8 8 7 7 7 7 7 7 7 7 7 7 7 8 8
5 4 4 5 5 5 5 6 6 7 6 6 5 5 7 7 7 8 8 7 7 8 8 9 8 8 8 8 7 7 8 7 8 7 7 8 7 7 8 8 8 8 8
5 4 4 4 4 5 5 5 6 6 6 6 6 5 4 5 5 6 7 7 8 8 8 9 8 8 8 8 8 7 8 8 8 8 8 8 7 8 8 9 8 8 8
4 4 5 5 4 4 5 5 6 6 6 6 6 5 5 6 7 7 7 8 8 8 8 8 8 8 8 8 8 9 10 9 8 8 8 8 8 8 8 8 8 8 8
4 4 4 4 4 4 5 5 6 6 6 7 6 5 7 7 7 7 7 8 8 8 8 8 8 7 8 8 8 9 9 9 9 8 8 8 8 8 8 8 8 8 8
4 4 4 4 4 4 5 5 5 6 6 6 6 5 6 7 7 8 8 8 7 8 8 8 8 7 7 8 8 8 9 9 8 9 9 8 8 8 8 8 9 9 9
4 5 5 5 5 5 5 5 5 6 6 6 6 6 6 7 7 8 8 7 7 7 7 8 9 10 11 9 8 9 9 8 8 9 11 9 9 8 8 8 9 9 9
4 4 5 5 5 5 5 6 6 6 6 5 5 6 6 6 7 7 7 6 7 8 9 9 8 9 11 12 11 9 8 8 8 8 8 8 9 9 8 8 8 8 8
4 4 4 4 4 5 5 5 5 5 5 5 5 6 6 6 6 6 6 6 7 7 8 8 10 10 11 11 12 11 9 9 9 10 9 8 8 8 9 8 9 8 8
Wind_Direction
202 204 206 204 209 208 218 218 233 248 250 248 246 246 237 232 229 222 232 226 231 228 224 229 223 216 218 213 220 236 239 240 232 224 194 185 196 195 167 183 171 175 133
208 211 214 209 218 219 218 220 235 251 258 254 250 244 235 231 232 233 230 225 229 235 235 229 227 209 219 218 220 232 231 230 227 221 213 202 221 187 173 183 180 172 149
209 215 215 215 222 228 225 222 237 242 249 248 241 240 237 233 227 228 227 228 228 233 234 231 229 222 220 217 226 231 229 227 219 219 220 205 220 197 187 184 185 177 180
213 221 221 221 223 225 227 229 242 246 245 244 240 240 238 235 230 229 229 234 234 233 232 232 230 233 232 228 228 229 226 221 212 217 215 208 210 204 207 198 197 202 220
217 223 226 228 222 221 223 233 241 246 249 244 240 237 235 237 238 240 234 235 237 233 227 224 221 224 271 242 239 232 224 225 217 217 219 216 211 205 215 213 217 217 230
221 225 223 225 220 217 222 229 236 246 250 243 242 240 238 234 215 249 255 238 236 234 231 227 219 208 206 215 225 236 237 232 227 224 226 225 222 215 215 223 219 223 237
222 224 221 222 221 222 221 227 231 238 244 244 241 240 243 228 188 215 246 252 239 236 236 233 225 218 210 220 205 208 219 230 241 242 235 232 226 217 216 228 235 242 257
220 220 219 221 222 222 224 228 233 236 240 242 240 238 242 229 192 205 229 238 240 237 234 233 230 222 212 225 220 219 224 219 221 234 244 241 231 217 221 231 236 238 245
220 221 222 223 221 222 227 232 232 230 236 240 237 237 243 235 201 207 229 235 234 235 232 232 233 231 178 211 226 224 224 221 205 235 279 268 208 197 199 205 211 220 238
225 224 224 226 223 225 228 232 232 227 230 234 235 236 239 241 207 207 231 237 235 233 231 229 222 238 188 197 223 227 228 228 220 213 222 208 203 190 196 214 216 229 242
231 226 222 224 225 226 226 229 229 225 228 234 237 237 238 240 209 205 223 236 235 234 230 229 222 196 202 214 240 237 238 245 229 224 224 222 215 210 209 222 227 233 242
229 228 225 224 222 220 220 222 223 221 224 231 234 238 238 233 229 216 218 235 247 237 235 233 223 191 205 216 229 226 200 228 229 227 228 223 223 224 223 226 232 236 250
228 228 227 223 222 220 215 215 217 217 221 226 230 236 237 234 225 213 215 222 234 239 242 242 217 190 201 215 212 200 204 221 228 231 234 232 229 228 222 223 231 237 246
232 229 225 223 219 219 218 218 219 220 223 226 230 235 237 233 228 221 223 222 218 231 240 213 197 199 215 223 204 206 222 226 229 235 239 237 228 224 223 221 227 227 238
236 235 227 223 221 221 220 224 226 229 230 232 232 234 233 235 230 221 223 225 224 224 219 216 216 211 217 219 220 218 220 221 227 235 236 232 227 226 228 225 229 234 241
235 235 232 225 223 223 223 230 240 243 236 239 244 245 240 243 224 214 222 219 210 198 208 221 223 225 225 224 222 222 223 224 227 229 233 233 230 231 230 227 227 232 240
234 236 237 231 226 226 227 229 234 238 230 231 231 234 239 231 219 218 222 215 202 193 215 227 229 231 232 230 228 227 229 229 231 232 233 234 230 231 231 229 229 233 239
239 237 240 236 232 232 233 235 235 235 238 241 230 224 224 221 218 215 208 200 210 211 225 230 232 233 234 234 231 230 231 230 229 231 234 235 232 231 232 232 232 233 237
241 240 241 243 240 238 237 238 237 235 237 239 238 227 220 220 215 211 200 218 223 224 227 231 233 234 234 235 234 233 231 232 231 231 235 235 233 233 234 234 236 235 236
246 244 248 244 240 239 241 241 240 237 236 236 235 233 220 221 228 222 222 230 233 234 233 234 234 235 234 234 233 232 233 233 234 234 235 234 232 231 235 236 236 235 234
252 246 239 245 241 238 238 242 243 242 239 238 238 231 216 224 230 230 229 234 235 238 237 236 237 235 233 232 232 232 233 235 235 236 235 234 232 231 233 236 237 238 237
252 250 243 244 246 243 242 244 246 244 243 245 246 234 216 231 237 236 235 236 238 240 241 239 238 237 233 230 231 232 234 235 234 234 235 234 233 234 235 235 235 236 235
248 246 246 248 250 247 245 246 247 249 249 247 245 241 233 238 243 244 243 241 240 240 240 238 238 238 238 236 232 232 235 235 234 234 232 232 232 233 234 236 236 235 233
249 244 242 243 247 248 247 248 248 250 251 250 248 247 244 243 247 251 251 250 246 244 243 241 239 238 238 240 237 234 237 242 241 235 232 230 229 231 231 235 237 235 234
254 250 247 244 244 247 250 253 254 252 252 252 252 254 254 252 253 256 257 256 254 250 248 246 245 243 241 239 239 238 237 239 241 238 231 228 229 229 231 231 233 235 233
258 258 258 255 253 252 251 253 256 259 258 257 257 258 260 259 258 258 260 258 257 255 253 249 245 244 245 242 242 240 231 226 228 232 230 227 226 227 228 230 232 230 232
Height
1532 1533 1533 1534 1534 1534 1534 1534 1534 1535 1534 1534 1534 1533 1533 1533 1534 1533 1533 1533 1534 1534 1534 1534 1534 1534 1534 1534 1534 1534 1534 1534 1533 1534 1533 1533 1532 1532 1532 1531 1531 1530 1530
1529 1530 1531 1531 1532 1532 1532 1532 1532 1532 1532 1531 1531 1531 1531 1531 1531 1531 1531 1531 1532 1532 1532 1532 1532 1532 1532 1532 1532 1532 1532 1532 1532 1531 1531 1531 1531 1531 1530 1530 1529 1529 1529
1526 1527 1528 1528 1528 1529 1529 1529 1529 1529 1528 1528 1528 1528 1528 1528 1528 1528 1529 1529 1529 1530 1530 1530 1530 1530 1530 1530 1530 1530 1530 1530 1529 1529 1529 1529 1529 1529 1528 1528 1528 1528 1527
1523 1524 1524 1524 1525 1526 1526 1526 1526 1526 1525 1525 1525 1525 1525 1525 1525 1526 1526 1527 1527 1527 1527 1527 1528 1528 1528 1528 1528 1528 1528 1528 1527 1527 1527 1527 1527 1527 1527 1527 1527 1526 1526
1519 1520 1520 1521 1522 1522 1522 1522 1522 1522 1522 1521 1521 1521 1522 1522 1522 1523 1523 1524 1524 1524 1525 1525 1525 1524 1524 1525 1525 1525 1525 1525 1525 1525 1525 1525 1525 1525 1525 1525 1525 1525 1524
1515 1516 1517 1517 1518 1518 1518 1519 1519 1519 1518 1518 1518 1518 1518 1519 1518 1519 1519 1520 1521 1521 1521 1522 1522 1521 1521 1521 1522 1522 1522 1523 1523 1523 1523 1523 1523 1523 1523 1523 1523 1523 1523
1511 1512 1513 1513 1514 1514 1514 1514 1515 1515 1515 1514 1514 1514 1515 1515 1515 1515 1516 1516 1517 1518 1518 1519 1518 1518 1518 1518 1519 1519 1519 1519 1520 1520 1520 1520 1520 1520 1520 1520 1520 1521 1520
1507 1508 1508 1509 1509 1510 1510 1510 1511 1511 1511 1511 1511 1511 1511 1511 1512 1512 1512 1513 1513 1514 1514 1515 1515 1515 1515 1515 1515 1516 1516 1516 1516 1517 1518 1518 1518 1517 1517 1518 1517 1518 1518
1503 1503 1504 1505 1505 1506 1506 1506 1507 1507 1507 1507 1507 1507 1507 1508 1508 1508 1509 1509 1510 1510 1510 1510 1511 1511 1511 1511 1512 1513 1513 1513 1513 1513 1513 1514 1513 1514 1514 1514 1514 1515 1515
1498 1499 1499 1500 1501 1501 1502 1502 1503 1503 1503 1503 1503 1503 1504 1504 1504 1504 1505 1505 1506 1506 1506 1506 1506 1507 1507 1508 1509 1509 1509 1509 1509 1509 1510 1510 1510 1510 1511 1511 1511 1512 1512
1494 1494 1495 1496 1496 1497 1497 1498 1498 1499 1499 1499 1499 1499 1500 1500 1500 1499 1500 1501 1501 1502 1502 1502 1502 1502 1503 1504 1505 1506 1506 1506 1506 1506 1506 1507 1507 1507 1507 1507 1508 1508 1509
1489 1489 1490 1491 1491 1492 1493 1493 1494 1494 1495 1495 1495 1495 1495 1495 1495 1495 1495 1496 1496 1497 1497 1498 1498 1498 1499 1500 1501 1501 1502 1502 1503 1503 1503 1503 1503 1503 1503 1504 1504 1504 1505
1484 1484 1485 1486 1487 1487 1488 1489 1490 1490 1491 1491 1491 1491 1491 1491 1490 1490 1490 1491 1491 1492 1493 1493 1494 1494 1495 1495 1496 1497 1498 1498 1498 1498 1498 1499 1499 1499 1499 1499 1500 1500 1500
1479 1480 1480 1481 1482 1483 1483 1484 1485 1485 1486 1486 1486 1486 1486 1486 1485 1485 1486 1487 1487 1488 1488 1489 1489 1490 1491 1491 1491 1492 1493 1493 1494 1494 1494 1495 1495 1495 1495 1495 1495 1495 1495
1475 1475 1476 1476 1477 1478 1478 1479 1480 1480 1481 1481 1481 1481 1481 1481 1481 1481 1482 1482 1483 1484 1484 1485 1485 1485 1486 1486 1487 1487 1488 1488 1489 1489 1490 1490 1490 1490 1490 1490 1490 1491 1491
1471 1471 1471 1471 1472 1473 1473 1474 1474 1475 1476 1476 1476 1477 1476 1477 1477 1477 1477 1478 1479 1480 1480 1480 1480 1481 1481 1481 1482 1482 1483 1483 1484 1484 1484 1485 1485 1485 1485 1485 1485 1485 1486
1467 1467 1467 1467 1467 1468 1468 1468 1469 1470 1470 1470 1471 1471 1471 1471 1472 1472 1472 1473 1474 1474 1475 1475 1475 1476 1476 1476 1477 1477 1477 1478 1479 1479 1479 1479 1479 1479 1479 1479 1480 1480 1480
1462 1462 1462 1462 1462 1463 1463 1464 1464 1464 1464 1464 1465 1465 1466 1466 1467 1467 1467 1468 1468 1468 1468 1469 1470 1470 1471 1471 1471 1472 1472 1473 1473 1473 1473 1474 1474 1474 1474 1474 1474 1475 1475
1457 1457 1457 1458 1458 1458 1458 1459 1459 1459 1459 1459 1460 1460 1460 1461 1461 1462 1462 1462 1462 1462 1463 1463 1464 1464 1465 1465 1466 1466 1466 1467 1467 1467 1467 1468 1468 1468 1468 1468 1468 1469 1469
1453 1452 1453 1453 1453 1453 1453 1453 1453 1453 1453 1454 1454 1454 1454 1455 1455 1455 1455 1455 1455 1456 1456 1457 1458 1458 1459 1459 1459 1460 1460 1461 1461 1461 1461 1461 1462 1462 1462 1462 1462 1462 1462
1448 1448 1448 1448 1448 1448 1448 1448 1448 1448 1448 1448 1448 1448 1448 1449 1449 1449 1449 1449 1449 1449 1450 1450 1451 1451 1452 1452 1453 1453 1454 1454 1455 1455 1455 1455 1455 1455 1456 1456 1456 1456 1456
1444 1444 1443 1443 1443 1443 1443 1443 1443 1442 1442 1442 1442 1442 1442 1443 1443 1443 1442 1442 1443 1443 1443 1444 1444 1444 1444 1445 1446 1446 1447 1447 1448 1448 1448 1449 1449 1449 1449 1450 1450 1450 1450
1439 1439 1439 1439 1439 1438 1438 1438 1438 1437 1437 1436 1436 1436 1436 1436 1436 1436 1436 1436 1436 1436 1436 1436 1436 1437 1437 1438 1438 1439 1440 1440 1441 1442 1442 1442 1442 1442 1443 1443 1443 1443 1443
1434 1434 1434 1434 1434 1433 1433 1433 1432 1432 1431 1431 1430 1430 1429 1429 1429 1429 1429 1429 1428 1428 1428 1428 1429 1429 1430 1431 1431 1432 1433 1434 1434 1435 1435 1435 1436 1436 1436 1436 1436 1436 1436
1430 1429 1429 1429 1428 1428 1428 1427 1427 1426 1426 1425 1424 1424 1423 1422 1422 1422 1421 1421 1421 1420 1420 1421 1421 1422 1422 1423 1424 1425 1426 1427 1427 1428 1428 1429 1429 1429 1429 1429 1430 1430 1430
1425 1425 1424 1424 1424 1423 1423 1422 1422 1421 1420 1420 1419 1418 1417 1416 1415 1415 1414 1414 1413 1413 1412 1412 1413 1414 1415 1415 1416 1417 1418 1419 1420 1421 1421 1422 1422 1422 1423 1423 1424 1424 1424